This is the latest recevied weather packets stored in our database for station/object KM4KBD. If no packets are shown the sender has not sent any weather packets the latest 10 day(s).
| Time | Temp. | Humidity | Pressure | Rain* | Wind** | Luminosity | Snow |
|---|---|---|---|---|---|---|---|
| 1777677451 | 15° C | 48% | 1020 hPa | 0 mm | - | 71 W/m² | - |
| 1777677149 | 15° C | 52% | 1020.1 hPa | 0 mm | - | 110 W/m² | - |
| 1777676847 | 14.44° C | 52% | 1020 hPa | 0 mm | - | 60 W/m² | - |
| 1777676546 | 15.56° C | 52% | 1020.2 hPa | 0 mm | - | 103 W/m² | - |
| 1777676243 | 15° C | 51% | 1020.1 hPa | 0 mm | - | 139 W/m² | - |
| 1777675940 | 13.89° C | 53% | 1019.9 hPa | 0 mm | - | 94 W/m² | - |
| 1777675635 | 14.44° C | 50% | 1019.9 hPa | 0 mm | - | 72 W/m² | - |
| 1777675334 | 15° C | 48% | 1020 hPa | 0 mm | - | 102 W/m² | - |
| 1777675029 | 15.56° C | 50% | 1019.9 hPa | 0 mm | - | 117 W/m² | - |
| 1777674726 | 15.56° C | 46% | 1019.8 hPa | 0 mm | - | 120 W/m² | - |
| 1777674423 | 15.56° C | 46% | 1019.8 hPa | 0 mm | - | 268 W/m² | - |
| 1777674120 | 15° C | 49% | 1019.8 hPa | 0 mm | - | 76 W/m² | - |
| 1777673816 | 14.44° C | 51% | 1019.8 hPa | 0 mm | - | 86 W/m² | - |
| 1777673513 | 15° C | 49% | 1020 hPa | 0 mm | - | 94 W/m² | - |
| 1777673211 | 16.11° C | 48% | 1019.9 hPa | 0 mm | - | 169 W/m² | - |
| 1777672908 | 16.11° C | 49% | 1019.9 hPa | 0 mm | - | 212 W/m² | - |
| 1777672605 | 15° C | 50% | 1019.9 hPa | 0 mm | - | 142 W/m² | - |
| 1777672300 | 15° C | 49% | 1020.1 hPa | 0 mm | - | 78 W/m² | - |
| 1777671995 | 16.11° C | 47% | 1019.7 hPa | 0 mm | - | 193 W/m² | - |
| 1777671691 | 16.67° C | 50% | 1019.9 hPa | 0 mm | - | 337 W/m² | - |
| 1777671388 | 16.11° C | 51% | 1019.7 hPa | 0 mm | - | 356 W/m² | - |
| 1777671084 | 16.11° C | 50% | 1019.9 hPa | 0 mm | - | 373 W/m² | - |
| 1777670781 | 15° C | 53% | 1020.1 hPa | 0 mm | - | 444 W/m² | - |
| 1777670477 | 15° C | 51% | 1019.7 hPa | 0 mm | - | 141 W/m² | - |
| 1777670174 | 15.56° C | 52% | 1019.9 hPa | 0 mm | - | 437 W/m² | - |
* Rain latest hour (hover to see other rain measurements)
** Current wind speed in m/s (hover to see current wind gust speed)